Orange, MA

9:14 PM EDT on October 22, 2019 (GMT -0400)
Orange Municipal

Weather History for KORE - August, 2019

Change the Weather History Date:

Monday, August 19, 2019

  Actual Average Record
Temperature  
Mean Temperature 78 °F -  
Max Temperature 90 °F 78 °F 88 °F (2002)
Min Temperature 68 °F 54 °F 44 °F (2007)
Cooling Degree Days 12    
Growing Degree Days 28 (Base 50)    
Moisture  
Dew Point 67 °F    
Average Humidity 79    
Maximum Humidity 96    
Minimum Humidity 49    
Precipitation  
Precipitation 0.01 in - - ()
Sea Level Pressure  
Sea Level Pressure 29.97 in    
Wind  
Wind Speed 2 mph ()    
Max Wind Speed 13 mph    
Max Gust Speed -    
Visibility 7.1 miles    
Events Fog , Rain , Thunderstorm    
Averages and records for this station are not official NWS values.
T = Trace of Precipitation, MM = Missing Value Source: Averaged Metar Reports

Daily Weather History Graph

Daily Weather History Graph

Search for Another Location

Airport or City:

Astronomy

Aug. 19, 2019 Rise Set
Actual Time 5:59 AM EDT 7:44 PM EDT
Civil Twilight 5:29 AM EDT 8:14 PM EDT
Nautical Twilight 4:53 AM EDT 8:51 PM EDT
Astronomical Twilight 4:13 AM EDT 9:30 PM EDT
Moon 10:00 PM EDT (8/19) 9:42 AM EDT (8/19)
Length of Visible Light 14h 45m
Length of Day
13h 44m
Waning Gibbous, 85% of the Moon is Illuminated
Aug 19
Waning Gibbous
Aug 23
Last Quarter
Aug 30
New
Sep 5
First Quarter
Sep 14
Full

Hourly Weather History & Observations

Time (EDT) Temp. Heat Index Dew Point Humidity Pressure Visibility Wind Dir Wind Speed Gust Speed Precip Events Conditions
12:52 AM 71.1 °F - 69.1 °F 93% 29.94 in 9.0 mi Calm Calm - N/A   Clear
1:52 AM 70.0 °F - 68.0 °F 93% 29.95 in 7.0 mi Calm Calm - N/A   Clear
2:48 AM 69.8 °F - 66.2 °F 88% 29.97 in 3.0 mi Calm Calm - N/A   Scattered Clouds
2:50 AM 69.8 °F - 66.2 °F 88% 29.97 in 1.8 mi Calm Calm - N/A   Scattered Clouds
2:52 AM 69.1 °F - 66.9 °F 93% 29.96 in 1.2 mi Calm Calm - N/A   Scattered Clouds
2:56 AM 69.1 °F - 66.9 °F 93% 29.97 in 1.0 mi Calm Calm - N/A   Mist
3:08 AM 69.1 °F - 66.9 °F 93% 29.97 in 1.5 mi Calm Calm - N/A   Scattered Clouds
3:13 AM 69.1 °F - 66.9 °F 93% 29.97 in 3.0 mi Calm Calm - N/A   Mostly Cloudy
3:15 AM 69.1 °F - 66.9 °F 93% 29.97 in 1.8 mi Calm Calm - N/A   Mostly Cloudy
3:18 AM 69.1 °F - 66.9 °F 93% 29.98 in 0.8 mi Calm Calm - N/A   Mist
3:52 AM 68.0 °F - 66.9 °F 96% 29.97 in 0.2 mi Calm Calm - N/A Fog Fog
4:21 AM 68.0 °F - 66.9 °F 96% 29.99 in 1.2 mi Calm Calm - N/A   Overcast
4:24 AM 68.0 °F - 66.9 °F 96% 29.99 in 2.0 mi Calm Calm - N/A   Overcast
4:32 AM 68.0 °F - 66.9 °F 96% 29.99 in 3.0 mi Calm Calm - N/A   Overcast
4:52 AM 68.0 °F - 66.9 °F 96% 29.99 in 7.0 mi Calm Calm - N/A   Overcast
5:52 AM 68.0 °F - 66.0 °F 93% 29.99 in 9.0 mi South 3.5 mph - N/A   Overcast
6:52 AM 69.1 °F - 66.9 °F 93% 30.00 in 10.0 mi Calm Calm - N/A   Clear
7:52 AM 72.0 °F - 66.9 °F 84% 30.00 in 10.0 mi South 4.6 mph - N/A   Clear
8:52 AM 75.0 °F - 66.0 °F 73% 29.99 in 10.0 mi South 4.6 mph - N/A   Clear
9:52 AM 78.1 °F - 64.9 °F 64% 29.99 in 10.0 mi South 5.8 mph - 0.00 in   Clear
10:52 AM 81.0 °F 83.3 °F 66.9 °F 62% 29.98 in 10.0 mi South 8.1 mph - N/A   Clear
11:52 AM 84.9 °F 87.6 °F 66.9 °F 55% 29.97 in 10.0 mi South 6.9 mph - N/A   Clear
12:52 PM 87.1 °F 90.6 °F 68.0 °F 53% 29.95 in 10.0 mi South 10.4 mph - N/A   Clear
1:52 PM 86.0 °F 89.4 °F 68.0 °F 55% 29.95 in 10.0 mi South 9.2 mph - N/A   Scattered Clouds
2:52 PM 84.0 °F 90.2 °F 73.0 °F 69% 29.94 in 6.0 mi South 5.8 mph - 0.01 in Rain Light Rain
3:03 PM 84.9 °F 90.7 °F 72.0 °F 65% 29.94 in 10.0 mi Calm Calm - 0.00 in Thunderstorm Thunderstorm
3:24 PM 84.0 °F 88.4 °F 70.0 °F 63% 29.95 in 10.0 mi Calm Calm - 0.00 in Thunderstorm Scattered Clouds
3:36 PM 84.0 °F 88.4 °F 70.0 °F 63% 29.94 in 10.0 mi North - - 0.00 in   Scattered Clouds
3:52 PM 78.1 °F - 66.0 °F 66% 29.94 in 10.0 mi South 12.7 mph - 0.00 in Thunderstorm Thunderstorm
4:01 PM 79.0 °F - 66.0 °F 64% 29.94 in 10.0 mi SSW 11.5 mph - N/A   Mostly Cloudy
4:52 PM 81.0 °F 83.3 °F 66.9 °F 62% 29.93 in 10.0 mi South 11.5 mph - N/A   Clear
5:52 PM 84.0 °F 87.0 °F 68.0 °F 58% 29.93 in 10.0 mi ESE 3.5 mph - N/A   Partly Cloudy
6:52 PM 84.0 °F 84.9 °F 63.0 °F 49% 29.95 in 10.0 mi West 3.5 mph - N/A   Clear
7:52 PM 77.0 °F - 68.0 °F 74% 29.97 in 10.0 mi SSW 4.6 mph - N/A   Clear
8:52 PM 73.0 °F - 68.0 °F 84% 29.99 in 10.0 mi Calm Calm - N/A   Clear
9:52 PM 71.1 °F - 66.9 °F 87% 30.00 in 10.0 mi Calm Calm - N/A   Clear
10:52 PM 71.1 °F - 66.9 °F 87% 30.00 in 10.0 mi Calm Calm - N/A   Clear
11:52 PM 69.1 °F - 66.0 °F 90% 30.02 in 10.0 mi Calm Calm - N/A   Clear